Powrót do katalogu

TITAN 3C TRANSTAGE DEB

LostHEO
NORAD 28818·DEBRIS·🇺🇸 United States

Wystrzelony Dec 21, 1965 z Cape Canaveral Space Force Station

Loading…

Następne Przeloty (najbliższe 24 godziny)

TLE

NieaktualneSource: Space-Track

Epoka: Dec 14, 2025, 16:16 UTC

1 28818U 65108CF  25348.67817317 -.00000024  00000-0  00000-0 0  9996
2 28818  27.2345 343.2478 6644335 192.5530 355.6806  2.57486962198841

Śledź TITAN 3C TRANSTAGE DEB w czasie rzeczywistym z AllMySat

Download on the App Store